Theta_e
313 313 314 314 314 313 312 312 312 310 308 314 311 309 309 305 300 310 313 311 308 302 296 299 298 294 295 297 298 297 297 296 298 297 298 296 297 297 296 294 294 294 294 294 293 293 291 292 291 292 293 293 295 297 299 300 300 300 297 299 298 304 294 292 291 294 295 296 297 298 298 296 295 296 296 295 292 293 293 294 296 295 295 297 298 297 296
313 313 314 314 314 313 312 312 312 311 308 309 309 311 306 308 304 306 311 311 308 302 293 293 294 295 297 297 296 297 297 297 297 296 297 296 296 295 295 296 297 294 296 295 291 294 289 293 293 292 294 293 298 297 298 301 298 299 297 296 299 292 293 294 289 290 291 293 295 295 296 297 293 293 295 295 295 295 295 297 298 294 292 292 297 292 295
313 313 314 314 313 313 312 312 311 311 310 310 310 312 308 307 307 310 309 309 307 297 298 296 294 295 294 294 294 295 296 297 296 297 296 298 296 296 294 296 297 295 297 294 295 295 294 291 294 293 294 294 299 298 297 301 299 301 304 304 304 295 292 292 287 284 283 284 286 288 290 291 293 294 294 295 294 293 295 293 295 291 293 295 296 293 297
313 313 314 314 313 313 313 312 312 311 311 306 313 309 306 301 297 301 302 304 303 300 302 298 297 295 296 294 294 295 294 296 297 298 297 298 298 298 297 297 298 296 295 293 293 293 296 293 292 293 293 295 296 296 297 297 300 303 305 304 301 294 294 293 292 291 289 290 290 291 294 293 290 291 292 292 295 295 295 296 294 291 293 294 294 295 296
313 313 314 313 313 313 313 312 311 311 310 309 312 307 304 303 299 298 296 303 300 298 300 298 299 295 296 293 294 293 293 294 296 298 295 298 297 297 297 296 294 293 294 292 292 293 293 295 294 293 293 295 295 298 296 298 301 305 301 303 299 296 291 292 293 291 291 292 291 292 293 291 291 291 291 293 293 293 293 291 291 296 293 291 295 297 295
313 314 314 314 313 313 312 312 311 311 309 307 314 307 306 299 299 301 302 293 292 296 296 298 299 298 298 295 295 293 293 294 293 296 298 298 299 294 297 297 296 296 294 294 290 292 292 293 291 294 294 294 295 295 297 296 300 301 297 300 297 293 289 291 292 290 292 292 292 293 293 292 292 291 291 291 292 293 291 292 293 294 292 293 296 297 296
313 313 314 315 314 313 313 313 311 310 307 308 315 308 304 304 304 303 304 296 296 297 297 299 298 297 300 297 295 293 293 292 293 293 295 296 296 298 292 293 296 296 297 296 292 293 288 288 293 293 293 293 294 292 295 297 299 298 297 298 299 295 290 291 292 290 291 292 292 293 292 291 291 291 292 292 292 292 292 292 293 293 294 295 296 297 299
313 314 314 315 314 314 313 313 312 310 307 313 312 306 304 304 302 298 301 303 301 301 297 298 298 295 298 294 294 293 293 292 294 295 295 292 294 298 294 294 296 297 297 298 293 293 295 293 290 294 294 293 295 293 294 294 298 298 295 296 298 296 292 293 291 290 289 291 292 293 292 291 289 291 292 292 292 292 292 293 294 295 294 294 294 295 299
313 313 314 315 314 314 314 313 311 309 309 315 310 308 308 306 307 306 305 298 299 303 297 297 297 296 298 295 296 297 295 293 294 294 296 295 294 296 294 296 296 296 297 296 295 297 298 297 296 297 296 292 297 294 294 296 294 296 295 295 296 296 291 292 291 287 287 290 290 290 291 291 290 289 290 291 291 290 294 295 302 300 295 298 295 294 298
313 313 314 314 314 314 314 313 312 309 308 311 310 308 309 309 308 305 305 298 299 296 296 296 297 293 296 298 297 296 295 296 295 294 298 299 298 298 297 297 296 296 296 295 296 298 298 298 298 300 298 299 298 299 298 297 296 296 295 297 294 295 293 289 290 285 286 290 290 290 290 289 286 287 290 292 294 295 298 302 304 304 304 300 295 297 304
313 313 314 314 315 315 315 314 314 309 313 312 312 308 309 308 307 307 305 298 297 296 296 296 297 297 298 298 297 298 298 297 297 293 293 299 298 298 299 298 297 295 295 298 300 301 301 301 301 301 299 299 299 300 300 299 300 298 297 296 296 295 293 291 293 286 287 288 290 291 286 280 283 293 294 294 294 297 296 299 302 304 305 303 305 305 306
313 313 314 314 315 315 315 315 314 311 308 309 312 310 311 308 305 303 305 296 294 297 297 295 296 297 297 297 298 297 298 299 298 301 297 298 299 300 300 299 300 294 300 303 303 302 302 303 302 302 300 299 299 299 300 298 298 301 299 296 294 294 293 292 293 288 287 290 290 286 280 282 293 295 298 300 299 301 302 302 303 304 306 305 305 305 306
312 313 313 314 314 315 315 315 314 313 310 312 315 310 311 311 308 304 304 301 295 297 296 296 298 298 298 299 298 298 299 299 301 302 301 300 299 301 301 300 299 300 305 303 302 301 298 295 295 296 296 298 298 298 298 298 297 299 300 300 297 293 292 293 291 291 291 288 287 279 281 291 293 295 299 303 301 303 303 300 302 303 303 304 305 305 306
312 313 313 314 314 314 315 315 314 313 311 311 314 311 312 310 311 309 308 301 296 299 297 297 298 298 298 298 300 298 299 300 300 301 300 302 300 300 302 304 303 305 304 305 302 300 295 295 291 292 292 294 294 293 295 297 297 297 298 299 299 297 296 294 289 293 285 287 286 285 292 290 292 294 296 300 298 298 297 292 299 302 304 304 304 305 305
312 313 313 313 314 314 314 314 314 313 312 309 314 313 313 312 311 309 301 306 298 298 297 295 297 299 299 298 299 298 298 299 299 298 300 301 301 303 303 305 306 304 304 303 299 299 296 293 288 287 288 288 284 286 293 291 295 297 298 299 299 299 294 295 290 288 291 287 285 286 285 281 289 296 302 301 301 301 302 297 295 302 303 304 304 304 304
312 312 313 313 313 314 314 314 314 313 313 310 313 312 313 311 309 310 306 306 303 294 298 301 302 301 300 299 299 298 297 298 298 298 299 301 301 303 305 307 306 306 304 300 299 297 294 290 285 285 284 286 289 287 286 291 290 294 297 298 298 297 298 296 291 290 289 287 283 283 280 285 295 297 299 301 301 302 303 295 289 300 302 303 304 303 304
311 312 312 313 313 313 314 314 314 313 313 310 312 313 312 313 313 313 312 308 305 298 301 303 303 302 300 298 298 299 300 298 299 295 295 297 300 301 304 306 307 306 303 301 298 295 291 286 285 286 287 289 285 285 288 287 289 289 294 296 296 295 295 294 290 289 290 288 284 283 288 286 294 298 299 301 304 301 298 284 287 298 302 303 303 302 302
311 312 312 313 313 313 313 313 314 314 313 311 312 315 313 314 312 312 311 306 304 301 303 304 303 300 299 301 300 300 301 300 299 300 299 299 299 301 302 303 301 302 304 298 297 294 289 287 287 286 286 290 289 287 283 287 286 288 288 290 289 291 292 292 288 289 289 288 287 289 290 296 299 299 301 302 303 299 287 283 294 300 303 303 303 303 302
311 311 312 312 312 313 313 313 313 313 313 311 311 313 314 314 315 313 311 306 303 299 304 305 307 305 304 304 304 303 302 302 304 298 298 296 300 302 302 302 303 298 302 299 296 294 291 289 289 288 288 287 287 286 286 285 287 289 289 286 286 288 290 291 290 288 287 289 286 287 291 297 302 303 302 304 297 286 286 298 300 303 303 304 303 302 303
311 311 311 312 312 312 312 313 313 313 313 312 311 313 313 313 313 313 312 305 302 304 305 306 307 305 306 305 302 301 302 301 302 300 298 295 301 301 300 297 301 302 299 301 294 293 291 288 289 287 287 289 289 290 286 286 291 291 290 292 289 289 287 286 286 288 288 287 285 284 280 296 302 302 299 304 292 295 299 301 303 304 304 302 303 303 303
311 311 311 311 312 312 312 312 312 312 312 312 309 311 313 313 312 314 313 313 307 304 305 304 305 307 308 307 308 308 305 302 302 300 302 301 304 301 291 293 298 299 296 297 290 292 293 289 291 288 292 290 291 288 286 287 289 294 294 293 292 292 287 288 289 292 286 285 282 284 292 300 304 301 294 301 302 303 303 302 300 304 303 303 303 303 303
311 311 311 311 311 311 312 312 312 312 312 312 309 309 310 311 310 312 312 312 309 307 307 306 308 308 310 311 311 310 308 307 308 308 304 301 303 302 301 302 301 301 301 301 296 294 295 294 294 290 289 290 292 289 289 286 286 289 295 294 287 296 292 295 289 295 291 289 293 299 300 303 304 304 303 303 305 305 305 303 302 302 302 304 302 302 303
311 311 311 311 311 311 311 312 312 312 311 312 311 310 307 308 309 312 312 311 312 311 311 310 309 310 312 313 314 314 313 313 312 309 309 305 302 302 302 301 301 305 304 303 299 298 298 296 294 297 293 294 291 288 288 290 288 290 288 296 295 297 298 298 295 293 298 298 299 300 300 301 303 305 306 304 304 304 304 303 301 303 303 303 302 302 302
311 310 311 311 311 311 311 311 311 311 311 311 311 308 307 307 308 311 312 309 307 306 308 306 306 306 306 308 311 314 314 312 312 313 314 312 302 302 303 305 306 304 304 307 307 301 300 299 296 296 290 295 296 291 288 286 287 292 290 291 295 297 297 295 293 297 291 289 301 298 299 301 302 303 305 306 305 304 304 303 303 303 303 303 303 302 302
310 310 310 310 310 310 311 311 311 311 311 310 311 311 310 309 309 308 310 305 307 304 300 304 305 307 309 312 313 312 314 316 317 314 312 311 309 305 304 307 308 305 306 306 304 304 302 298 295 296 290 298 297 290 297 290 291 295 289 294 294 293 300 295 295 295 292 293 299 300 300 301 302 302 301 302 303 304 305 304 305 304 304 303 303 303 302
310 310 310 310 310 310 310 310 310 311 310 312 310 308 307 308 309 309 312 311 308 307 301 300 304 310 311 311 310 311 313 314 314 313 312 312 312 312 310 308 307 309 307 305 305 303 302 300 300 299 294 295 300 294 293 296 296 297 293 295 298 299 298 292 296 293 296 299 299 300 301 300 301 302 303 303 304 304 304 304 304 303 302 303 303 304 303
310 310 310 310 310 310 310 310 310 310 310 310 310 309 308 308 310 308 309 311 306 300 301 302 306 308 310 309 312 314 314 314 313 313 312 312 311 311 310 309 307 306 306 304 306 304 302 301 299 296 298 297 299 298 298 295 295 294 292 295 299 297 293 297 295 292 292 293 297 300 293 293 299 301 304 304 305 304 303 303 302 302 302 303 302 302 304
310 310 310 310 310 310 310 310 310 310 310 309 309 309 309 307 308 310 309 308 308 302 302 303 304 308 311 306 312 313 313 314 313 312 311 311 311 310 309 308 308 305 305 303 300 299 300 297 296 301 299 301 296 295 298 300 298 295 295 296 298 296 299 296 293 293 292 299 302 303 301 301 301 302 303 305 305 304 302 302 302 303 303 303 302 302 302
310 309 309 309 309 309 309 309 309 310 310 310 309 308 308 309 310 309 309 309 310 308 305 305 308 307 301 305 313 312 314 314 313 312 311 310 310 310 309 308 306 307 306 305 305 303 301 301 303 299 298 302 298 295 295 293 292 291 296 300 299 301 304 300 300 301 302 304 305 304 301 299 302 304 304 304 306 304 303 304 304 304 304 304 303 303 302
310 309 309 309 309 308 308 309 309 310 310 310 307 306 306 307 309 309 309 310 310 311 304 301 299 303 310 310 310 312 312 313 312 311 310 309 309 309 309 308 307 308 307 305 303 299 304 303 303 304 304 306 299 298 294 295 293 295 301 301 301 302 303 303 304 302 300 306 305 305 303 303 304 304 305 305 306 305 303 303 304 304 304 305 304 304 305
310 309 308 308 308 308 308 309 309 310 310 306 305 304 304 301 307 311 310 311 312 311 307 305 300 306 306 312 310 310 310 311 311 311 309 307 308 308 309 309 309 308 304 304 304 304 305 301 302 301 304 304 303 297 294 292 291 294 298 300 301 301 301 301 302 304 304 307 304 305 304 304 304 303 302 303 304 305 304 304 305 306 306 305 305 305 305
309 308 308 308 308 308 308 309 309 309 309 306 305 304 304 307 309 311 311 311 313 310 306 300 301 302 302 306 309 312 311 311 310 310 311 311 309 309 308 308 307 311 309 304 304 302 301 303 300 300 298 303 302 297 296 292 290 292 300 301 303 302 303 302 302 303 304 305 302 300 300 301 302 301 302 305 305 305 305 305 305 306 306 306 306 306 306
309 308 308 308 308 308 308 309 309 308 308 309 310 310 309 308 308 310 311 313 312 309 309 303 298 301 300 304 309 309 311 310 309 309 309 312 310 311 308 309 307 306 310 304 299 297 304 301 303 299 303 307 299 297 294 292 294 299 301 302 303 305 304 306 305 305 305 304 303 299 300 302 303 304 306 306 306 305 305 305 305 305 305 304 304 305 305
308 307 307 307 307 308 309 309 310 309 308 307 308 309 312 310 310 309 312 313 311 312 310 303 299 299 299 309 303 307 311 306 305 308 304 311 312 309 307 306 307 302 305 302 303 302 304 304 301 301 303 300 302 297 292 296 301 301 302 303 304 305 302 300 301 301 301 302 303 302 303 304 307 307 306 305 306 306 306 305 305 304 304 304 303 303 303
307 307 307 308 309 309 310 310 309 308 305 304 306 311 312 309 310 311 311 311 305 304 303 304 304 297 295 300 299 304 311 307 304 309 304 308 312 307 307 303 304 300 301 308 301 300 300 301 305 298 296 302 297 292 295 298 301 302 303 303 304 302 300 298 300 302 303 303 302 301 302 303 302 302 303 305 305 305 304 304 305 304 303 302 302 301 301
307 308 308 309 309 309 309 308 307 306 308 308 310 314 313 313 312 313 313 313 310 304 303 304 303 298 298 294 296 304 311 305 307 308 307 308 306 309 307 304 297 302 307 301 298 301 299 306 301 294 302 295 293 297 297 299 300 301 302 302 304 303 302 302 303 303 302 301 300 300 300 301 301 302 305 305 305 305 304 304 304 304 302 300 300 301 301
308 308 309 309 309 308 306 307 309 308 310 312 314 315 314 314 313 313 310 310 314 314 305 302 299 300 301 300 304 309 307 301 309 306 307 304 303 305 303 300 297 303 302 299 299 298 303 309 300 295 295 292 296 301 302 301 301 300 301 302 304 305 306 305 305 303 300 299 299 298 299 299 300 302 303 304 304 304 303 302 302 301 300 299 300 300 300
309 309 309 307 306 306 308 308 309 313 314 314 315 312 311 313 304 305 306 304 309 311 306 306 300 303 307 303 299 310 307 303 309 301 303 305 301 300 304 300 301 302 293 297 300 308 304 300 297 295 295 296 298 301 301 302 303 303 303 304 305 306 306 305 303 300 298 296 296 297 298 298 299 301 301 303 303 303 303 303 303 302 302 301 300 301 301
308 307 306 305 306 306 307 309 315 316 314 316 315 308 306 310 305 301 301 304 306 301 306 303 301 305 303 302 304 312 306 303 301 302 296 305 300 296 302 294 300 301 293 295 298 305 296 296 296 294 293 298 298 300 303 303 304 304 304 306 307 306 305 303 303 301 299 299 299 300 300 301 301 302 303 303 303 303 303 303 302 302 302 301 301 301 301
306 304 304 305 306 309 315 314 315 315 314 308 309 307 302 306 300 295 306 297 296 303 304 299 306 305 305 303 302 302 312 304 298 298 299 301 308 297 302 300 300 295 290 290 296 304 295 289 295 293 291 295 296 301 302 303 303 304 304 305 305 305 306 304 304 305 304 303 305 305 305 306 306 305 303 303 302 301 302 303 303 302 302 301 302 302 301
304 305 305 306 308 310 311 313 314 312 308 304 304 305 302 295 303 303 301 297 297 300 308 305 306 304 306 306 304 300 311 311 308 307 304 298 308 305 298 293 303 293 291 290 300 300 297 293 293 290 290 295 298 300 302 303 303 304 305 305 305 305 305 305 305 306 305 304 304 304 304 305 305 304 304 304 304 302 302 302 302 302 302 301 301 302 303
307 307 308 309 309 309 311 311 310 306 304 307 300 291 294 299 303 301 302 295 298 302 303 304 301 303 305 306 305 307 307 312 309 307 302 297 302 298 296 298 299 290 287 296 301 298 295 287 287 288 294 298 300 301 301 301 303 304 304 305 305 305 305 304 305 306 306 306 306 306 305 306 305 305 306 305 304 303 303 303 302 301 301 302 303 302 301
308 308 310 307 308 307 308 301 306 306 293 293 291 289 295 291 297 298 300 303 310 305 306 310 309 310 309 311 307 309 306 311 305 303 300 298 303 301 296 294 293 287 292 301 297 291 288 287 286 290 295 297 299 300 301 302 303 304 305 306 304 304 304 304 304 306 306 307 307 307 307 306 306 306 306 306 305 304 304 303 302 301 301 302 302 301 300
309 309 307 308 305 305 305 292 305 301 293 291 290 288 294 295 298 300 297 301 305 305 309 305 307 304 301 308 305 305 306 307 307 304 301 301 297 294 293 289 291 298 302 295 290 287 288 292 291 292 296 298 299 300 300 301 302 304 305 305 305 303 303 303 303 303 304 305 306 306 306 306 306 306 306 305 304 303 303 302 303 302 302 302 301 300 300
306 301 296 300 296 299 295 290 298 295 290 293 296 298 298 296 300 300 299 306 304 304 308 308 307 306 304 308 308 307 305 302 305 300 295 298 295 295 292 291 298 298 292 287 288 289 289 289 294 295 295 295 298 299 301 301 301 301 303 304 305 303 303 302 302 301 302 304 306 305 305 306 306 305 305 304 304 304 303 301 302 301 301 301 300 299 299
302 294 291 292 289 292 294 290 290 292 300 300 300 303 303 304 302 302 308 308 305 306 305 307 307 306 304 308 302 301 305 304 299 299 300 298 292 290 298 301 298 291 288 288 285 285 286 291 293 295 297 297 298 300 300 301 301 301 302 302 303 303 303 303 302 301 301 303 304 305 305 305 305 304 304 304 304 304 303 302 302 301 301 299 298 298 298
302 301 292 292 289 292 298 292 295 299 303 303 306 307 305 306 306 307 308 308 306 308 308 307 306 306 304 305 304 303 304 303 298 300 300 293 291 295 300 293 286 287 284 283 284 287 289 293 295 297 298 298 298 299 299 300 300 300 300 302 303 303 303 303 303 303 302 302 303 304 305 305 305 305 304 303 303 303 303 302 302 302 300 298 298 298 298
291 295 300 293 290 292 293 300 304 305 307 307 309 309 309 308 305 307 310 309 309 308 308 308 306 305 303 306 304 299 301 301 297 297 298 295 296 292 288 288 288 289 289 286 286 292 291 293 296 297 298 298 298 297 297 298 299 299 299 300 302 304 303 300 301 302 302 302 302 304 305 305 304 304 303 303 302 302 302 301 301 301 300 299 299 299 298
303 294 293 292 297 296 300 303 304 305 308 307 307 307 307 305 306 309 311 311 309 309 311 307 306 304 300 301 299 298 295 299 291 290 296 294 288 284 283 281 283 281 289 292 290 291 292 294 296 297 297 296 296 296 297 298 298 298 299 300 302 303 305 304 301 301 303 303 303 304 305 306 305 304 303 302 301 300 301 301 301 300 300 300 299 299 298
294 294 298 295 299 300 303 304 302 302 306 306 307 306 307 307 308 310 312 310 310 309 308 306 305 301 299 297 292 294 293 297 295 293 291 287 287 288 286 281 283 284 286 290 291 293 295 295 295 294 295 295 296 296 296 297 298 299 300 301 303 304 305 305 303 301 300 301 302 304 306 306 305 303 303 302 302 302 302 301 301 300 300 300 300 299 298
300 296 297 306 301 300 303 301 301 299 298 302 304 307 307 308 308 311 310 310 308 306 304 300 299 298 294 292 290 286 289 296 293 289 287 287 291 287 284 282 285 288 290 293 294 294 295 295 294 294 294 294 295 296 297 298 298 298 299 301 302 304 304 304 302 301 301 302 304 305 304 305 306 304 304 303 302 301 300 300 301 300 300 300 300 299 298
294 295 301 305 306 305 304 307 305 304 303 305 306 309 308 307 309 309 310 310 308 303 299 301 299 294 289 289 293 295 296 292 288 288 285 290 292 287 286 288 289 291 292 292 292 294 295 295 296 296 294 295 297 297 297 298 298 299 299 301 302 303 303 302 303 303 302 303 304 305 305 306 305 304 303 302 302 301 299 298 300 300 300 300 300 300 300
Wind_Speed
23 23 23 22 22 23 24 24 23 21 21 5 4 2 4 4 2 4 6 8 3 11 8 3 5 5 2 3 5 2 3 3 4 5 7 4 4 5 9 6 1 5 2 4 5 3 7 5 5 2 4 9 8 6 8 6 0 2 4 2 3 2 3 5 7 4 3 4 1 2 5 2 1 9 9 8 6 5 3 3 3 2 2 4 4 2 5
22 24 22 21 22 23 24 24 23 19 13 2 4 4 3 1 1 4 7 10 2 6 4 5 6 6 4 7 6 3 5 8 9 8 8 5 5 5 4 5 8 5 5 4 3 3 4 4 3 4 1 4 3 7 9 11 7 6 3 3 4 2 2 1 6 3 2 3 4 3 2 5 5 5 8 7 6 3 1 2 1 2 3 4 2 6 5
22 23 21 21 22 23 23 23 23 19 13 1 2 2 1 1 2 1 5 9 6 5 1 5 6 4 5 5 8 5 5 4 4 6 8 5 3 1 6 4 1 6 2 5 4 6 3 5 4 2 2 3 4 6 10 10 8 7 5 2 2 3 2 2 3 4 4 4 4 4 1 4 2 4 7 9 10 9 2 1 2 1 2 1 1 6 4
22 22 21 21 22 23 24 24 23 20 13 2 0 2 1 3 3 4 5 7 6 5 2 3 4 5 2 7 4 3 3 2 5 6 7 5 6 7 2 0 5 4 6 9 8 9 9 4 4 1 3 2 2 2 7 8 9 11 10 8 1 3 2 3 3 2 0 4 5 3 2 1 1 4 5 7 7 6 3 1 1 3 1 3 6 5 5
21 22 20 21 22 23 24 24 23 20 14 2 2 4 3 2 3 3 3 3 6 4 5 3 2 3 1 3 3 6 4 2 4 6 4 7 5 4 6 3 2 3 8 7 9 6 10 10 9 5 4 2 1 3 4 5 12 12 8 9 2 3 4 5 7 9 7 4 4 3 1 3 2 4 5 5 5 5 5 3 4 1 2 4 2 1 4
20 21 21 21 21 23 24 24 24 21 15 3 1 4 4 3 0 0 1 1 2 3 6 6 5 4 1 3 1 4 5 7 4 3 4 2 5 2 4 9 9 6 5 3 6 4 7 4 4 1 2 1 3 1 4 7 8 8 6 6 3 3 3 2 4 7 5 4 4 4 4 4 2 3 4 5 5 5 3 2 2 2 2 3 5 1 3
19 20 22 20 21 22 24 25 24 21 17 2 1 5 2 2 2 1 2 2 1 2 2 4 6 9 6 3 5 4 5 7 4 3 4 4 5 5 6 7 7 5 1 2 4 1 2 4 2 1 3 3 2 2 1 3 8 7 5 5 2 1 5 2 3 6 5 5 5 5 5 4 4 4 4 4 4 5 3 4 2 4 6 2 5 4 5
18 19 20 20 20 22 23 25 25 23 17 4 8 6 1 2 1 3 2 5 3 4 2 2 4 7 5 3 4 2 3 5 2 3 4 4 5 3 9 5 7 6 6 4 7 4 5 5 4 1 1 2 1 2 2 3 4 6 5 3 2 2 4 2 1 3 3 3 2 2 4 4 5 5 5 5 3 4 4 3 0 3 4 6 4 4 5
17 18 20 20 19 20 21 23 25 25 15 5 6 3 4 1 1 2 2 4 4 3 3 3 3 3 4 3 2 1 3 5 2 5 3 3 3 4 8 5 6 6 8 8 6 0 3 3 4 6 3 2 2 1 1 2 2 5 3 3 3 3 3 1 1 3 3 1 2 3 4 4 4 4 4 4 3 2 2 1 2 1 1 0 1 5 5
16 17 18 19 18 19 19 20 23 25 15 5 2 4 0 1 1 1 1 3 3 2 0 0 1 4 2 2 2 0 1 1 2 5 3 4 4 2 5 2 6 5 8 7 5 3 2 3 4 1 1 3 3 1 2 2 1 1 2 2 2 2 3 3 2 2 3 3 2 4 5 4 4 2 3 4 1 1 1 3 1 1 1 2 4 3 5
15 15 17 17 17 18 18 20 21 21 11 6 3 2 1 2 1 2 1 4 1 2 1 3 3 1 1 2 3 3 2 2 1 1 2 3 4 2 2 3 4 4 3 3 3 2 2 4 4 2 3 4 5 3 5 4 3 2 0 1 1 0 1 2 1 1 4 2 3 3 3 3 0 6 3 2 3 3 2 1 2 3 1 3 5 6 5
13 14 15 16 15 16 17 18 19 18 11 3 1 3 1 2 3 1 1 4 2 1 1 2 2 1 2 1 1 2 4 5 4 3 7 3 2 1 3 4 2 4 1 1 4 6 7 5 8 10 10 8 7 6 6 7 5 3 2 1 2 2 2 2 1 1 1 1 4 4 4 2 5 1 3 2 3 2 3 5 3 3 4 4 5 5 4
12 13 14 15 15 14 15 16 16 17 14 4 3 5 2 1 1 2 2 3 3 1 3 2 1 1 1 3 5 4 3 1 3 6 5 4 5 3 3 3 3 3 1 2 6 6 3 4 4 3 6 5 7 8 8 7 5 4 4 3 1 3 2 2 1 1 1 1 0 2 1 5 5 4 2 1 1 2 4 3 2 4 3 2 1 2 2
11 12 13 13 15 15 15 15 15 15 15 7 5 4 1 2 1 2 1 3 2 0 1 3 1 3 3 2 4 3 0 4 2 1 4 2 3 4 2 1 2 2 2 2 5 2 3 2 4 3 3 1 2 2 3 3 5 5 4 4 3 2 2 2 1 0 1 1 1 3 2 4 5 2 1 1 1 2 3 4 4 2 2 3 1 1 2
10 11 11 12 13 14 14 14 14 14 15 9 2 3 4 3 1 3 1 1 3 2 1 3 4 3 2 2 1 3 2 1 2 3 1 1 1 1 1 2 2 1 3 3 1 1 1 2 2 2 3 3 2 2 2 1 2 4 4 3 2 1 2 1 2 1 2 2 2 2 1 2 3 2 4 0 1 1 0 2 3 5 1 1 1 2 3
9 9 10 10 11 13 14 14 13 13 15 9 2 2 4 3 0 2 3 1 3 2 3 4 3 4 3 1 1 1 3 3 1 1 3 0 0 1 1 1 1 1 3 4 2 2 1 2 1 2 1 1 2 0 2 1 2 2 3 2 3 3 3 1 3 1 4 3 2 2 2 1 4 5 4 1 1 2 4 2 6 6 1 3 1 1 3
8 9 9 9 10 11 12 13 13 13 13 12 2 2 5 5 2 1 2 2 1 1 2 2 3 3 3 2 2 2 2 2 3 3 3 3 3 0 1 1 2 1 2 2 1 2 1 2 1 0 0 1 0 1 2 0 2 3 3 3 5 3 1 2 4 4 4 4 3 4 4 2 5 7 4 2 0 2 3 5 3 6 4 2 2 2 4
8 8 8 8 8 9 11 12 13 13 13 12 4 2 3 4 2 2 3 2 1 1 2 6 6 3 4 3 2 2 3 3 1 1 0 1 1 2 2 1 2 2 2 2 2 2 2 1 1 1 1 2 0 0 2 2 2 3 4 2 2 2 2 2 4 3 4 6 5 3 4 4 3 7 6 2 3 2 5 7 4 4 1 0 1 2 3
7 7 7 7 7 8 8 10 12 13 13 13 4 1 2 4 5 1 4 2 2 0 1 2 3 2 2 4 3 3 0 1 2 2 2 2 2 1 2 3 2 1 2 3 2 2 2 1 1 1 1 2 1 1 2 1 2 3 4 3 2 1 1 1 1 4 6 5 6 6 7 4 4 4 6 6 3 6 8 3 3 5 4 3 2 3 3
6 7 7 7 7 6 7 8 9 11 13 13 6 1 1 2 3 5 3 2 1 3 2 4 5 6 4 4 4 3 3 1 0 1 2 1 2 2 2 2 1 0 1 1 3 1 2 2 2 1 1 2 1 3 1 2 0 4 3 1 2 4 5 3 4 3 2 1 4 4 5 2 4 10 4 6 7 2 4 4 4 5 3 3 4 4 3
6 6 6 7 6 6 6 7 8 9 11 12 7 1 1 1 2 4 3 3 1 2 1 1 1 4 3 5 5 3 8 5 5 3 3 1 2 2 1 1 3 3 3 3 2 3 3 2 3 2 1 0 3 1 2 1 2 3 2 3 3 2 3 2 4 5 2 5 6 5 1 4 7 8 6 6 5 4 4 1 2 5 4 4 4 4 4
6 5 6 6 6 5 5 6 6 7 8 10 8 1 1 1 1 3 2 0 2 3 2 1 1 3 5 5 4 3 2 1 3 1 3 3 2 2 2 1 3 3 2 2 3 2 1 1 2 2 3 2 1 2 3 2 3 2 1 2 3 9 4 1 1 6 6 3 4 1 1 1 5 7 2 2 3 2 1 3 3 4 4 4 4 5 4
5 5 6 6 5 5 5 5 6 6 7 8 7 2 1 3 2 5 3 1 2 3 2 2 1 4 5 7 9 9 7 5 3 3 4 3 3 2 4 4 4 1 1 2 3 0 2 5 3 2 1 4 5 3 2 2 1 3 3 8 2 2 1 2 1 3 4 8 9 3 3 4 6 7 5 4 2 2 4 4 4 4 4 3 4 3 4
5 5 6 5 5 5 5 5 5 5 6 5 4 3 2 3 4 4 1 2 2 4 1 2 2 1 1 3 3 2 4 4 8 8 5 6 5 2 1 3 2 2 2 3 0 2 3 1 1 1 3 3 5 3 5 5 6 3 1 2 4 4 5 5 5 1 1 3 4 8 11 10 9 8 6 5 5 5 4 6 5 4 4 4 4 4 4
5 5 5 6 5 5 4 4 4 5 4 5 4 2 2 2 2 3 2 2 2 2 2 3 1 0 1 2 3 3 5 3 3 6 7 8 9 7 4 3 6 3 4 6 3 4 2 3 2 3 3 3 6 4 2 3 2 7 5 4 3 4 8 7 7 4 7 6 2 2 1 3 4 5 6 7 7 7 7 7 5 4 4 4 4 4 6
5 5 5 6 5 5 4 4 4 4 4 4 4 3 2 2 1 3 2 4 3 1 1 2 0 2 2 5 3 2 1 3 5 6 8 10 11 10 2 4 1 3 4 3 4 6 4 2 1 2 3 3 4 5 3 3 3 4 5 3 2 4 9 5 5 7 8 10 13 12 7 9 11 10 10 8 6 7 8 8 7 6 6 6 6 6 6
5 5 5 5 5 4 4 4 4 4 4 3 3 3 3 4 3 3 1 1 2 0 1 4 3 4 4 10 7 3 2 3 5 6 7 9 10 8 5 3 3 3 4 3 2 1 1 1 3 6 5 3 5 3 1 3 4 4 4 4 6 6 8 4 3 6 7 8 6 6 5 4 4 8 9 9 8 8 7 7 8 7 7 6 7 7 7
5 5 5 5 4 4 4 4 4 4 3 4 3 4 4 4 3 4 4 3 1 2 2 3 4 6 5 5 3 3 4 4 5 6 7 8 8 7 8 8 5 4 4 5 3 5 4 6 8 2 2 3 4 4 2 2 1 4 8 7 10 10 8 8 8 7 8 8 9 7 7 6 6 3 6 5 6 8 9 9 9 8 8 6 6 7 7
5 5 5 5 4 4 4 4 3 4 4 4 4 3 3 4 4 4 4 3 2 2 1 5 6 3 2 3 6 5 2 3 4 5 6 6 8 8 9 9 9 8 4 4 1 2 4 5 3 5 3 2 3 2 4 6 7 9 9 10 12 12 9 13 14 11 11 9 3 6 6 8 4 5 6 6 6 8 9 8 8 7 7 6 7 7 8
5 5 5 4 4 3 3 4 4 4 3 3 2 1 1 2 1 3 4 4 2 1 0 4 4 1 3 3 3 3 3 3 4 5 6 5 6 7 7 8 7 7 6 4 4 7 3 2 2 1 2 3 2 1 4 4 8 8 3 8 13 10 9 10 10 8 9 5 2 6 8 7 2 2 4 5 7 8 7 8 8 7 7 6 7 7 8
5 4 4 4 4 3 4 3 4 5 4 1 1 1 1 1 2 1 6 5 3 0 1 2 4 5 5 1 2 4 7 5 2 2 2 1 1 3 2 4 4 6 7 4 1 3 1 3 3 2 2 4 2 3 4 3 5 4 3 5 7 9 9 11 10 10 12 4 2 2 3 4 4 3 3 5 6 7 6 5 6 6 6 6 7 9 10
4 4 3 4 3 3 3 3 3 2 2 2 1 1 1 2 2 4 4 5 3 1 0 4 3 1 3 2 2 2 4 3 1 1 2 0 2 1 3 3 2 2 0 2 2 2 3 2 2 2 4 7 7 3 3 6 9 13 5 5 6 8 8 8 8 10 11 3 4 2 4 5 7 9 4 7 8 8 6 4 4 4 6 7 8 9 10
3 3 3 2 3 3 3 2 3 3 3 4 8 11 10 9 9 4 1 4 2 0 1 1 2 3 4 3 4 0 3 2 1 3 1 2 1 1 2 3 3 1 3 4 4 4 2 2 4 5 5 8 5 3 5 8 12 12 9 12 11 8 9 7 6 4 5 5 9 10 9 8 8 9 4 5 6 7 5 3 3 3 5 6 8 9 9
3 2 2 2 2 4 3 2 1 4 3 3 1 1 0 10 10 10 2 2 1 1 2 1 2 3 5 4 4 2 4 3 2 2 2 2 1 0 2 2 2 3 5 5 1 1 2 4 6 4 4 5 2 2 5 7 11 13 13 11 11 6 4 4 4 6 5 5 6 8 2 5 4 4 4 5 4 4 3 2 3 5 5 7 8 9 11
2 1 2 3 3 2 3 2 3 2 1 1 3 2 0 5 8 8 7 2 2 2 1 2 1 2 3 3 3 0 3 2 1 1 2 1 1 0 1 2 2 2 2 2 3 4 4 3 2 3 5 4 3 5 6 8 11 12 11 12 7 5 4 5 7 8 8 7 6 6 4 5 6 6 7 5 3 4 3 3 4 3 5 6 8 11 11
1 2 2 2 1 1 0 0 1 1 0 1 2 3 5 8 9 5 4 1 2 1 1 1 1 2 2 4 5 1 1 2 0 1 1 1 1 2 0 1 3 2 3 3 3 3 4 3 2 4 3 3 4 0 5 7 12 14 15 14 12 7 9 10 9 6 4 5 6 5 6 6 8 7 4 3 3 4 3 3 2 3 4 7 10 11 11
2 1 2 2 2 1 1 2 1 1 2 2 4 11 15 12 6 3 1 3 2 1 2 3 4 4 4 5 4 1 4 4 1 1 1 2 1 1 1 1 4 1 2 3 5 5 2 3 3 4 3 3 1 2 5 9 12 14 15 14 12 11 10 7 4 7 6 5 5 5 5 5 5 3 2 2 2 2 2 2 2 3 5 8 10 10 11
2 3 2 1 1 1 2 1 0 1 3 8 8 4 2 3 3 2 1 2 2 2 2 2 5 4 2 3 4 1 2 3 2 3 2 1 1 1 1 3 2 1 4 3 1 2 2 3 3 3 2 2 6 5 8 11 12 12 11 10 10 9 5 5 7 6 7 5 4 5 5 5 5 3 3 3 3 3 1 1 1 1 4 7 8 9 10
5 2 1 1 1 1 1 2 3 4 5 2 2 2 1 2 2 2 2 2 1 2 2 4 4 3 4 5 5 2 3 3 4 1 3 1 1 2 2 3 1 1 2 3 1 2 3 2 2 2 2 3 5 8 12 11 11 11 10 7 7 3 4 4 5 7 7 5 5 9 9 7 5 4 4 2 2 2 1 1 0 2 5 7 8 9 10
2 2 1 2 2 2 1 2 4 2 2 2 1 2 1 1 2 1 2 1 1 2 2 3 2 4 6 6 6 4 3 3 3 3 3 2 2 2 1 2 1 1 3 3 1 2 2 2 1 2 1 6 8 10 11 13 13 12 10 6 6 4 4 5 6 6 6 2 0 6 5 4 4 4 4 4 3 3 3 2 1 3 5 7 8 9 9
1 2 2 2 2 2 2 3 1 1 1 2 1 1 1 0 2 1 2 2 2 2 2 3 2 3 3 4 4 6 1 2 1 1 1 3 1 1 2 2 1 3 4 4 1 1 2 3 3 2 3 7 7 9 10 12 12 13 11 7 6 5 5 5 6 7 6 4 3 4 3 4 4 4 4 5 4 3 1 0 2 5 7 8 9 9 8
1 2 2 1 1 2 2 0 1 1 1 1 1 1 0 2 0 2 2 2 1 1 2 3 3 3 2 6 5 4 2 1 1 1 1 2 2 2 2 1 1 2 3 0 1 1 2 2 1 1 3 5 7 8 10 11 13 14 12 7 7 6 5 2 4 5 6 6 5 5 4 4 5 4 4 4 4 3 2 1 4 5 7 7 8 7 8
4 2 1 1 1 2 0 1 1 2 0 0 1 1 1 1 2 2 2 2 0 2 0 2 3 2 0 1 2 3 1 1 2 1 2 1 1 1 2 1 1 3 2 2 2 1 3 3 1 2 4 5 7 8 9 10 11 12 11 5 4 4 2 3 3 2 4 4 5 5 5 5 5 4 4 5 5 4 2 2 4 5 6 7 7 6 7
1 1 2 1 1 2 1 0 1 1 1 0 2 1 2 2 1 1 1 1 2 2 2 2 1 1 3 2 2 1 2 2 2 1 1 1 1 2 2 2 3 0 0 2 1 4 2 0 2 2 4 5 5 7 8 10 10 11 11 9 4 3 3 4 4 3 3 2 1 3 4 5 5 5 5 4 4 3 2 2 4 5 6 7 6 7 8
3 2 2 1 0 0 0 0 1 1 2 2 2 3 2 2 2 1 1 2 2 3 0 1 1 2 5 1 1 1 2 1 2 2 1 1 2 2 3 2 1 1 2 3 2 2 2 4 1 2 3 6 8 9 9 8 9 10 11 12 7 2 2 2 3 1 3 5 4 5 5 5 5 6 6 6 5 4 3 3 4 5 6 6 6 7 8
1 1 1 1 2 1 0 1 0 1 2 2 3 3 2 2 1 3 3 4 4 4 4 2 1 3 5 1 2 1 1 1 2 1 1 1 2 3 1 1 1 3 2 2 3 5 2 0 4 6 8 9 9 10 10 9 9 9 10 10 10 8 5 1 1 1 2 4 1 4 5 5 6 7 7 6 5 5 4 4 4 5 5 6 7 8 8
3 2 1 1 1 1 0 1 3 3 0 2 3 3 2 3 3 4 2 2 5 4 3 0 2 3 3 0 1 1 1 0 2 1 1 3 3 2 1 2 2 2 4 5 4 4 4 7 9 9 9 11 12 11 11 9 8 9 10 10 10 9 6 6 4 4 3 2 2 3 5 5 7 8 8 7 6 5 5 4 5 5 6 7 7 7 7
1 0 0 1 2 2 2 2 0 1 2 2 1 2 1 0 3 4 3 3 2 2 3 2 2 2 2 2 1 2 1 1 2 0 1 3 2 2 1 2 3 2 2 4 7 5 8 10 10 11 11 10 11 12 12 11 10 10 11 12 12 11 6 8 7 3 2 3 4 5 5 7 8 8 7 7 6 5 5 5 5 5 6 6 6 6 7
2 1 1 2 2 2 2 1 0 2 2 2 1 2 2 3 5 5 3 2 2 3 1 2 0 1 2 1 1 1 1 1 2 1 1 1 2 3 3 5 7 7 1 2 7 9 11 12 12 12 13 12 11 11 11 11 11 11 11 12 12 11 11 6 9 8 5 4 4 6 7 8 8 8 8 7 6 6 5 5 6 6 6 6 7 7 7
0 1 1 0 2 3 2 1 1 3 1 2 2 3 2 2 3 3 1 1 0 1 2 2 1 1 1 1 0 1 1 2 2 1 2 2 2 3 3 6 4 6 10 10 11 11 11 12 13 14 14 14 14 13 12 11 11 10 10 10 11 11 9 6 9 6 2 3 5 7 8 8 8 8 8 7 7 7 6 5 6 6 7 7 7 6 7
1 0 2 2 3 1 1 2 0 2 5 5 3 3 2 2 2 0 1 1 1 1 1 1 1 1 0 0 0 1 1 0 1 2 1 3 1 3 4 8 10 10 12 12 11 11 12 13 12 12 14 15 14 14 13 12 11 11 11 11 11 10 7 4 5 6 7 6 6 7 7 7 7 8 8 8 8 7 7 7 6 6 7 6 6 6 6
0 0 2 1 3 4 3 1 1 3 6 5 4 2 3 3 2 1 1 1 1 2 1 1 1 1 0 1 2 2 1 0 1 1 2 1 1 4 6 9 11 11 12 13 13 13 13 13 11 13 13 12 13 12 12 12 11 10 10 10 10 7 5 5 5 6 7 7 6 6 6 8 9 9 8 8 7 6 6 6 6 6 6 5 5 4 5
Wind_Direction
347 345 341 339 341 341 339 340 343 347 345 355 4 231 23 17 57 300 305 346 345 77 64 28 63 63 39 230 53 349 55 357 331 18 3 46 17 46 46 14 82 36 57 82 78 58 80 6 66 120 81 60 21 317 326 327 334 310 29 243 17 278 18 78 70 85 134 182 238 61 38 273 199 41 30 26 32 357 15 18 33 82 132 170 139 100 110
348 345 340 339 343 342 339 340 342 346 6 340 295 55 85 177 351 339 348 353 286 71 92 90 81 85 71 68 81 22 60 26 19 30 17 26 30 47 38 57 41 82 39 71 86 303 111 34 61 91 327 69 326 351 10 3 45 7 27 326 17 273 56 328 119 136 158 189 185 207 148 49 56 30 21 17 21 45 67 56 260 99 25 343 207 160 139
348 346 340 341 344 342 341 341 340 346 349 313 296 67 158 136 223 255 315 359 29 81 37 118 101 80 70 64 47 30 61 16 37 30 38 17 44 176 48 11 349 71 52 87 87 38 21 119 10 77 55 75 320 360 1 3 34 29 31 340 303 48 33 310 185 159 164 179 192 160 135 25 34 38 12 29 21 9 321 110 15 102 54 314 91 107 87
349 346 341 343 344 343 343 342 342 344 353 356 316 90 295 12 80 330 18 7 43 73 8 37 92 98 84 66 28 15 66 62 28 11 59 22 47 47 124 100 46 61 80 61 49 58 34 60 142 162 105 49 50 342 332 6 14 12 30 31 68 93 75 39 1 305 8 55 69 57 308 350 36 20 23 16 12 15 7 359 44 60 110 117 55 61 110
350 347 343 345 346 345 344 343 343 346 351 346 124 67 50 136 58 348 31 313 58 49 35 31 2 89 292 72 347 34 19 324 54 358 77 16 19 67 35 352 58 48 79 86 77 33 73 58 78 34 79 38 349 302 334 351 10 359 20 1 77 86 86 38 55 66 76 81 65 48 1 46 69 360 6 355 17 8 7 4 69 65 222 128 142 40 52
351 349 347 348 348 347 346 344 346 347 355 360 293 52 344 61 181 243 340 359 3 9 43 2 84 67 117 79 230 37 43 38 44 47 81 191 16 48 25 37 37 49 79 118 93 61 68 42 70 50 29 324 44 63 23 27 342 3 46 2 56 83 96 43 79 79 78 71 66 42 43 38 4 340 330 334 341 342 0 35 68 300 299 82 148 92 71
353 351 349 350 350 349 349 346 347 350 346 31 64 104 26 54 107 79 276 92 18 338 315 336 58 61 33 96 35 66 47 65 36 344 14 36 34 356 90 32 22 41 40 80 97 301 109 74 22 71 66 35 344 66 274 57 10 13 43 42 32 109 71 77 62 104 85 65 50 35 24 9 333 320 318 309 305 305 311 295 278 231 248 333 121 108 104
354 352 350 353 352 352 352 348 348 351 348 335 72 38 55 55 346 106 24 78 83 14 15 8 38 66 354 75 5 48 14 64 53 52 23 89 63 335 80 64 48 36 56 64 80 75 64 108 114 198 166 134 304 63 17 332 13 13 30 353 45 277 105 98 162 119 95 61 66 49 11 356 319 309 304 305 312 296 283 273 253 194 249 269 242 165 140
356 354 353 355 354 355 356 353 351 352 352 60 59 71 33 88 262 317 128 64 10 343 15 27 30 75 20 58 52 86 35 86 41 72 346 22 97 111 106 105 85 40 57 60 81 98 102 127 88 171 206 38 141 318 151 264 28 5 18 13 8 1 123 51 175 153 133 68 17 341 325 310 288 292 309 319 318 289 86 236 62 273 223 216 143 163 152
356 356 355 356 357 358 359 360 358 355 350 101 76 69 243 163 153 151 301 91 342 18 257 359 205 61 359 8 22 69 61 162 210 99 52 58 38 58 122 146 92 76 62 51 19 356 248 346 359 303 45 43 93 19 112 197 328 48 40 340 21 11 139 165 152 177 131 132 308 314 298 265 230 191 53 348 323 306 350 114 53 17 338 246 242 102 98
356 357 357 357 360 1 2 3 5 4 3 50 67 67 41 47 44 337 360 96 55 23 26 39 65 70 323 35 87 56 78 90 221 144 101 23 47 24 147 147 102 93 83 28 15 348 47 65 67 66 96 98 100 90 108 87 29 357 128 102 47 32 140 115 314 290 125 147 273 259 245 263 330 87 15 293 324 353 324 101 68 76 256 56 62 103 121
356 358 358 359 2 4 5 5 6 12 24 28 61 83 33 133 115 100 66 91 69 300 65 71 44 125 141 200 328 73 70 61 43 328 107 82 74 107 84 89 121 100 65 58 104 114 116 115 86 86 81 84 89 87 85 82 56 37 336 255 146 153 128 106 14 267 123 291 245 216 250 237 71 331 332 278 266 256 129 122 103 84 92 114 119 121 114
356 358 359 0 2 5 8 7 6 10 14 5 24 74 3 264 82 87 88 97 104 346 110 107 11 359 102 126 105 75 41 43 55 73 70 109 100 80 21 59 62 79 358 110 137 144 143 85 57 49 82 82 85 82 65 57 45 32 53 19 169 162 164 132 132 3 205 226 192 247 46 8 288 302 322 307 153 96 148 139 109 47 49 17 126 75 67
354 355 359 1 2 5 7 9 7 7 12 5 52 46 31 252 69 80 45 98 95 99 17 104 108 135 136 107 97 119 67 92 68 344 97 29 91 94 98 26 27 299 167 106 64 93 121 171 139 161 134 183 159 178 62 62 32 18 21 15 345 200 106 215 142 346 303 16 268 309 18 274 225 216 137 6 137 140 235 258 173 92 42 31 355 36 25
352 353 357 1 2 4 5 6 7 6 10 9 104 60 40 13 49 107 165 35 114 106 222 152 177 158 175 145 198 138 131 101 158 93 1 312 204 65 31 43 18 120 185 205 130 42 72 135 166 187 143 199 212 156 118 174 71 22 360 4 33 19 254 168 260 179 254 263 275 263 243 250 152 99 97 192 50 295 301 295 214 170 139 2 314 319 9
348 351 352 359 3 5 3 4 6 5 8 0 86 50 48 16 223 89 85 83 137 151 195 215 142 146 154 151 216 249 153 160 103 129 155 88 3 203 171 318 60 170 93 67 54 82 51 231 179 202 212 172 66 153 181 8 161 83 36 40 94 71 38 221 242 152 176 205 228 220 221 205 72 140 170 124 189 219 233 248 254 132 116 105 348 329 10
346 346 347 353 2 3 3 1 2 4 6 9 20 13 43 356 324 8 91 36 339 331 53 125 124 114 117 138 197 184 187 158 177 186 177 177 166 309 263 34 67 54 115 135 117 162 107 70 43 346 76 309 185 360 60 334 151 151 121 102 83 111 23 192 196 202 208 217 221 241 216 243 166 165 157 172 286 181 235 275 244 107 88 78 48 358 10
347 341 341 347 355 2 2 358 359 3 4 6 4 42 35 356 346 235 63 74 10 247 211 181 156 169 197 183 171 98 109 101 117 2 296 81 297 190 149 209 185 66 297 203 140 121 86 154 203 189 178 90 82 166 239 85 198 165 166 144 150 148 138 219 229 223 202 215 245 284 261 230 202 200 169 111 195 267 246 236 75 153 182 201 13 325 344
346 338 336 340 347 359 1 359 357 358 2 2 349 251 70 4 346 359 107 87 34 276 97 217 329 281 66 66 46 133 174 315 141 181 148 186 149 40 71 72 330 200 17 156 143 162 182 116 356 306 197 146 191 214 107 192 179 81 120 131 141 180 144 150 347 224 225 227 247 260 285 268 166 132 153 164 170 229 242 85 157 162 194 176 241 292 295
345 336 330 333 339 350 357 359 358 358 357 6 357 95 36 350 9 355 42 95 86 281 241 197 190 214 184 194 156 170 151 158 95 201 185 195 133 174 172 179 159 271 120 224 156 44 228 180 152 155 218 166 167 118 201 223 259 180 187 262 247 167 181 192 191 167 75 202 235 267 274 98 172 138 154 180 223 284 92 144 175 194 201 204 226 246 272
343 335 325 328 332 341 352 352 356 358 358 3 4 308 189 59 7 13 355 125 138 290 331 121 252 258 214 240 232 194 182 217 167 212 188 35 125 204 226 182 140 181 179 181 219 177 204 165 174 187 31 204 128 203 234 68 231 224 259 192 228 154 232 176 196 196 178 183 198 215 248 82 162 174 217 189 230 95 151 129 242 184 212 227 253 240 259
336 336 324 320 326 335 343 344 349 356 356 359 355 261 207 68 12 359 338 273 183 223 307 3 290 264 252 262 273 262 260 76 163 53 142 169 180 254 15 142 169 204 142 132 106 103 233 114 101 168 185 152 125 228 142 203 231 122 222 231 233 185 214 197 236 173 215 205 217 104 33 226 188 213 259 84 107 105 110 240 239 211 219 220 249 271 273
331 332 322 316 320 327 336 338 341 348 354 0 5 16 350 342 344 345 267 231 218 257 268 260 238 250 254 248 238 237 244 256 238 188 206 183 183 193 211 201 221 188 118 243 234 53 122 164 201 146 115 196 187 160 207 257 309 155 190 200 312 9 11 105 293 215 260 277 255 265 248 228 217 218 244 248 220 184 193 206 219 214 239 217 249 271 278
333 332 319 316 312 320 329 336 337 338 349 354 18 349 336 329 318 324 191 87 57 318 221 139 265 112 70 50 47 141 199 211 220 218 198 204 226 195 214 256 37 119 230 202 328 219 151 175 91 180 236 181 154 194 197 208 222 180 183 195 218 198 161 189 235 126 139 251 151 213 232 225 221 228 234 250 266 266 220 219 228 234 217 223 231 252 267
328 335 319 312 312 313 319 323 329 332 341 343 337 334 296 267 325 337 299 330 14 22 321 321 294 19 316 307 275 258 223 206 167 189 191 207 221 228 243 144 188 220 217 162 151 120 122 172 167 177 227 179 189 233 159 250 227 160 212 212 162 213 180 213 224 193 218 250 141 221 267 263 254 240 242 239 230 218 212 221 226 222 215 233 244 239 256
323 329 321 309 312 315 312 312 317 327 323 342 346 326 316 315 347 319 322 75 103 82 287 302 328 153 284 309 278 271 89 201 207 194 204 209 215 234 233 122 124 55 83 118 177 200 166 176 123 143 220 221 193 252 201 202 42 155 232 220 171 110 147 220 180 214 239 267 269 258 249 261 252 237 229 239 238 220 213 214 213 210 216 226 232 235 256
322 331 319 309 305 306 306 309 303 308 333 345 313 307 287 285 267 252 261 168 164 141 171 247 300 308 346 318 307 319 256 214 213 214 215 214 219 222 209 211 137 135 145 117 12 107 103 148 183 226 200 243 166 240 153 170 198 172 215 179 144 155 213 158 154 228 240 242 247 169 226 241 211 216 219 219 218 212 217 206 209 210 223 227 237 243 240
315 328 320 308 304 297 305 307 303 307 325 318 300 290 280 260 254 248 247 284 268 290 312 288 282 312 315 260 272 275 270 239 222 218 219 218 214 216 216 210 186 170 169 166 174 192 197 202 221 149 125 146 191 222 169 36 71 249 240 201 178 205 194 161 210 222 252 238 228 182 223 259 255 187 165 176 166 176 183 194 203 214 225 229 240 253 259
314 328 320 304 298 298 289 291 305 302 295 297 313 281 252 248 250 227 231 227 299 87 311 282 275 279 350 355 321 304 294 258 241 226 228 220 207 207 211 207 205 212 185 207 237 181 206 223 137 164 183 161 203 203 138 218 229 234 239 178 182 225 186 186 215 222 244 260 235 173 191 227 220 188 173 172 170 178 189 198 211 224 228 227 235 242 261
313 320 314 301 296 296 285 281 286 297 331 330 297 224 192 139 177 223 191 199 207 71 327 350 320 334 336 282 287 275 287 258 258 244 231 225 215 210 208 199 213 211 209 214 204 230 202 190 194 211 97 139 205 120 223 245 248 243 226 189 200 213 211 218 229 218 245 250 225 191 213 227 96 131 163 171 174 189 195 208 216 227 238 240 249 257 257
312 325 303 297 301 297 292 288 281 300 335 313 279 256 172 252 113 50 166 190 190 359 132 188 263 307 301 207 283 309 322 330 4 70 106 127 234 225 209 184 210 196 211 207 188 283 97 233 165 138 108 176 151 205 228 230 259 263 195 218 209 212 214 223 232 242 249 250 96 146 205 201 145 145 183 192 186 195 203 216 221 233 246 244 252 269 280
312 316 311 301 295 294 283 289 294 292 283 288 249 10 42 23 82 103 153 180 175 176 286 317 318 305 325 298 317 302 302 329 32 120 98 204 109 117 132 193 164 104 98 82 51 352 255 51 348 156 163 181 185 247 204 223 243 255 213 200 224 222 211 219 219 228 239 217 142 196 224 208 186 201 197 177 189 191 200 203 230 245 253 263 281 277 273
342 311 315 307 283 278 276 286 302 296 289 298 293 279 255 235 252 257 17 168 178 190 224 299 321 327 299 342 319 334 311 249 80 358 99 340 89 99 105 59 95 90 124 146 187 210 216 196 199 224 205 146 190 216 219 224 239 255 252 246 245 222 224 227 244 260 248 204 200 213 232 227 203 209 182 137 162 165 167 193 232 233 244 254 262 267 275
300 293 278 267 263 257 265 294 325 305 280 283 288 115 214 197 216 230 223 223 180 230 220 274 322 321 307 337 299 84 352 2 322 1 326 57 18 339 106 126 131 204 187 211 211 214 219 222 235 238 125 194 181 243 248 243 246 262 272 278 277 243 171 169 197 240 228 219 224 239 324 51 77 137 155 185 158 126 137 186 215 234 253 266 273 286 294
289 254 251 245 258 265 279 264 250 288 346 312 272 286 70 166 173 167 188 192 161 192 219 215 215 306 312 317 304 350 17 298 319 81 302 50 27 11 133 221 124 239 169 150 202 212 244 222 124 211 230 136 181 234 245 288 305 312 313 301 284 176 181 206 238 213 205 198 201 214 160 157 146 169 185 182 152 147 166 210 216 242 279 284 303 303 305
255 228 229 246 239 207 188 147 227 247 325 8 20 71 112 131 135 145 186 277 328 2 292 344 223 272 267 310 328 47 285 242 348 267 188 308 153 76 31 194 243 226 109 175 232 188 231 122 165 250 139 206 239 247 332 331 308 308 307 299 295 237 214 212 219 196 171 167 183 184 185 189 204 204 182 155 151 151 179 241 254 251 268 301 304 308 306
210 152 153 173 183 211 67 54 117 226 32 3 90 122 121 113 79 96 82 305 226 246 290 316 285 259 250 298 295 303 340 322 343 304 142 281 340 38 200 172 249 180 209 217 222 232 186 134 237 267 239 251 347 13 309 313 316 312 309 305 297 292 263 232 139 130 145 157 168 165 165 177 199 206 167 174 169 129 186 231 282 295 313 307 308 309 309
201 168 180 146 158 83 114 160 66 89 125 130 140 141 221 238 126 161 189 242 203 210 218 206 255 278 247 245 264 41 340 302 68 327 316 81 267 212 171 245 287 273 255 270 243 102 128 197 223 249 274 228 256 284 317 324 327 327 317 308 302 295 262 146 140 143 137 141 156 157 147 183 194 185 181 205 186 188 182 249 254 314 298 302 309 309 309
172 173 133 38 59 116 58 60 355 156 158 165 242 265 157 174 161 196 206 221 192 227 191 219 254 241 232 250 266 145 259 304 296 237 272 128 293 289 197 263 119 261 279 284 183 150 256 224 221 214 225 19 344 348 341 336 336 338 334 317 304 277 144 144 156 168 179 185 183 172 171 175 187 182 182 189 157 142 143 177 275 298 308 314 315 311 313
164 163 142 119 99 86 65 43 8 129 193 222 210 271 195 144 214 243 119 185 245 225 166 234 239 236 230 244 290 296 128 192 248 264 256 270 146 274 41 259 104 272 263 268 258 153 261 279 183 222 196 5 344 344 343 342 340 344 344 326 295 253 198 183 194 199 199 184 277 165 168 141 151 139 148 161 155 156 165 172 264 312 323 321 315 315 321
162 132 159 123 57 7 338 325 336 119 157 220 205 185 91 262 215 219 189 221 243 235 204 236 211 250 225 231 215 252 137 239 325 55 244 249 70 284 217 250 73 257 262 257 118 232 247 259 249 196 51 355 344 340 343 342 345 345 348 337 322 290 248 218 203 192 177 160 144 108 137 147 150 129 150 153 155 148 123 62 327 332 330 326 323 325 331
99 37 46 10 328 316 292 167 57 164 204 252 319 285 228 294 343 238 222 243 235 189 214 197 228 246 241 196 217 231 241 169 245 213 226 272 120 239 278 268 179 242 263 316 57 228 236 243 223 119 6 345 348 345 343 341 344 345 348 0 12 14 343 262 194 174 182 177 155 148 154 157 139 150 154 153 153 151 126 337 336 338 333 330 326 332 341
261 194 220 155 159 115 257 191 177 214 172 249 47 346 189 239 216 220 211 216 294 254 196 211 272 269 263 134 217 198 292 143 235 215 233 248 78 295 269 231 216 243 244 158 225 218 230 229 178 65 351 343 349 343 340 335 336 341 343 345 23 32 46 39 346 254 192 189 166 159 152 145 146 138 136 145 141 131 106 63 2 343 342 336 337 350 343
210 209 186 196 160 120 196 140 221 230 310 80 129 228 218 231 182 179 222 257 250 236 203 234 200 326 315 135 289 175 184 152 79 185 209 48 265 225 229 248 229 83 44 256 218 235 249 162 104 6 342 335 335 342 341 339 335 335 337 339 334 10 25 76 64 7 282 229 153 119 125 132 129 126 132 131 131 126 107 57 15 354 345 345 350 350 349
147 58 20 91 108 306 59 274 325 142 227 206 211 243 209 276 322 145 350 10 269 268 83 203 248 234 290 58 212 194 284 310 97 263 276 168 242 230 240 266 337 250 251 253 238 249 264 219 132 315 332 332 336 337 336 335 332 329 325 322 316 287 291 57 78 79 271 259 188 152 142 136 134 127 129 126 117 100 82 43 14 2 3 7 6 359 358
114 165 105 78 295 293 223 258 66 223 227 187 203 210 244 273 303 272 165 189 238 245 265 280 261 268 277 222 285 358 169 188 245 193 165 182 267 256 248 324 303 282 252 246 242 257 273 190 325 328 334 334 332 329 331 326 323 321 319 318 324 318 291 269 130 194 254 276 244 162 144 149 144 129 129 127 115 99 79 52 30 21 27 28 19 9 5
100 53 87 102 104 283 359 235 215 213 158 197 219 192 238 292 277 279 242 218 250 270 292 309 234 266 286 10 208 171 144 209 270 67 269 272 267 319 80 294 274 263 295 297 282 291 309 321 323 330 332 329 325 321 315 316 317 314 309 307 307 308 300 276 235 221 218 212 233 182 143 138 126 128 126 120 106 95 80 61 53 53 50 40 28 17 11
205 248 139 230 245 198 194 225 38 296 230 229 194 195 251 299 287 276 210 208 248 269 257 246 253 182 204 123 256 301 8 20 292 129 339 312 306 303 348 278 273 271 220 275 296 338 316 319 324 324 325 321 314 309 307 305 306 306 304 301 299 300 278 257 273 250 202 205 206 184 145 135 134 133 127 117 111 96 83 76 75 65 57 48 34 20 17
100 130 160 214 199 187 237 59 353 286 210 203 287 295 262 259 263 269 265 187 219 250 275 256 119 262 310 65 312 244 190 83 298 357 283 28 355 345 334 294 306 295 318 26 312 315 317 320 316 314 312 311 309 305 299 297 300 300 298 294 297 299 307 239 215 231 212 203 195 170 150 138 136 130 127 124 114 101 94 90 80 71 58 46 36 32 29
64 341 70 138 257 234 206 156 257 264 346 10 316 272 269 253 260 274 153 198 140 147 121 117 120 273 23 313 271 67 65 31 350 336 319 2 334 323 312 290 292 300 305 317 313 314 312 312 313 309 311 310 309 306 300 294 293 292 292 291 294 298 299 231 189 164 206 215 177 162 142 136 139 138 138 128 117 114 108 94 79 73 65 54 49 46 42
21 142 257 236 261 355 102 257 134 41 344 300 279 276 227 237 227 227 97 221 159 207 189 299 52 36 233 64 20 305 58 19 44 46 343 318 22 308 306 296 303 308 307 313 310 305 306 309 308 305 301 300 299 298 296 293 292 292 290 288 289 294 279 202 171 172 172 165 162 147 142 139 137 129 123 125 127 121 109 95 83 79 73 67 62 55 47
79 245 259 208 224 251 251 59 64 222 218 246 278 250 212 255 251 234 142 231 279 306 4 132 167 78 62 5 34 348 300 206 89 333 306 87 358 309 307 307 311 311 313 313 312 312 311 307 298 292 291 287 286 287 293 292 287 284 284 285 288 280 196 166 160 152 144 143 143 126 112 120 125 126 132 133 135 125 110 103 99 90 80 75 71 63 50